Вернуться в каталог

FENGYUN 1C DEB

АктивенSSO
NORAD 31362·DEBRIS·🇨🇳 China

Запущен May 10, 1999 с Taiyuan Satellite Launch Center

Loading…

Ближайшие Пролёты (ближайшие 24 часа)

TLE

СвежийSource: Space-Track

Эпоха: Sep 14, 2026, 04:58 UTC

1 31362U 99025BRS 26257.20720617  .00000143  00000-0  91322-4 0  9996
2 31362  98.6701 249.6159 0018810  28.0332 332.1852 14.17542921  4688

Отслеживайте FENGYUN 1C DEB в реальном времени с AllMySat

Download on the App Store